sat.trackr.live / text

‹ back to catalog

STARLINK-32673

NORAD 63000 · 2025-031V

PAYLOAD ACTIVE UNKNOWN

§ Identity

Operator
Country
US
Launch date
2025-02-11
Launch site
AFETR
Launch vehicle
Mass (kg)
RCS (m²)

Purposes: comms

External: N2YO · Heavens-Above · Gunter

§ Orbital elements

Epoch: 2026-09-20T00:21:43.729344Z

Period
94.27 min
Inclination
43.0034°
Eccentricity
0.0001451
Mean motion
15.27599351 rev/d
Perigee alt
482.0 km
Apogee alt
484.0 km
Semi-major
6,861.1 km
B*
6.1296e-4
RAAN
125.9866°
Arg perigee
291.4703°
Mean anomaly
68.5994°
Rev number
9,081

§ Raw data

STARLINK-326731 63000U 25031V   26263.01508946  .00016653  00000+0  61296-3 0  99992 63000  43.0034 125.9866 0001451 291.4703  68.5994 15.27599351 90815

JSON: /api/v1/satellites/63000 · /tle

For live sub-satellite position, see the globe view (requires WebGL).

§ Visibility from observer

Set your observer location to see the next 7 days of passes ≥ 10°. The values pass through the URL so the page stays shareable.

No JS? Fill the form by hand. The geolocation button needs JavaScript.